{"data":{"norad_id":61629,"epoch":"2026-05-24T20:16:53.908896Z","epoch_age_seconds":78547,"freshness":"FRESH","line1":"1 61629U 24191J   26144.84506839 -.00000004  00000+0  93914-5 0  9996","line2":"2 61629  43.0017  84.3953 0001390 281.4628  78.6068 15.27574955 89188","mean_motion":15.27574955,"eccentricity":0.000139,"inclination_deg":43.0017,"raan_deg":84.3953,"arg_perigee_deg":281.4628,"mean_anomaly_deg":78.6068,"bstar":9.3914e-6,"rev_number":8918,"period_min":94.267060040926,"perigee_km":482.11049565899,"apogee_km":484.01790959332,"semimajor_km":6861.2012026262,"source":"CELESTRAK","updated_at":"2026-05-25T13:38:19.408036Z"}}